Location: Newark
(45.2500°N, 7.5833°E)
Time: 04:36:56
(UTC+00:00)

Tiros 1 despin weight - Pass Details

Date: 26 January 2020
Orbit: 594 x 642 km, 48.2° (Epoch: 16 February)

Event Time Altitude Azimuth Distance (km) Brightness Sun altitude
Rises 11:35:15 0° 252° (WSW) 2,860 ? 26.0°
Reaches altitude 10° 11:37:32 10° 253° (WSW) 1,966 ? 26.0°
Maximum altitude 11:42:04 83° 341° (NNW) 628 ? 26.0°
Drops below altitude 10° 11:46:41 10° 71° (ENE) 2,002 ? 26.0°
Sets 11:49:01 0° 72° (ENE) 2,918 ? 26.0°
